| time (UTC) | temp F | wind direction | speed MPH | gust MPH | rain 1hr in | rain 24hr in | rain mn in | humidity % | barometer mb |
| 20260509120304 | 59 | 165 | 2.0 | 6.0 | 0.00 | 0.00 | 0.00 | 72 | 1012.5 |
| 20260509115307 | 59 | 150 | 1.0 | 6.0 | 0.00 | 0.00 | 0.00 | 71 | 1012.5 |
| 20260509114805 | 59 | 165 | 3.0 | 6.0 | 0.00 | 0.00 | 0.00 | 70 | 1012.5 |
| 20260509112809 | 58 | 158 | 2.0 | 5.0 | 0.00 | 0.00 | 0.00 | 72 | 1012.3 |
| 20260509111804 | 57 | 158 | 2.0 | 5.0 | 0.00 | 0.00 | 0.00 | 73 | 1012.3 |
| 20260509105306 | 55 | 139 | 0.0 | 1.0 | 0.00 | 0.00 | 0.00 | 78 | 1012.0 |
| 20260509104305 | 55 | 139 | 0.0 | 3.0 | 0.00 | 0.00 | 0.00 | 77 | 1012.0 |
| 20260509103805 | 55 | 139 | 0.0 | 2.0 | 0.00 | 0.00 | 0.00 | 77 | 1012.0 |
| 20260509102804 | 56 | 139 | 1.0 | 3.0 | 0.00 | 0.00 | 0.00 | 74 | 1012.1 |
| 20260509102306 | 55 | 139 | 1.0 | 3.0 | 0.00 | 0.00 | 0.00 | 74 | 1012.0 |
| 20260509101805 | 55 | 139 | 1.0 | 3.0 | 0.00 | 0.00 | 0.00 | 75 | 1012.0 |
| 20260509101304 | 55 | 138 | 0.0 | 3.0 | 0.00 | 0.00 | 0.00 | 74 | 1011.9 |
| 20260509095306 | 56 | 170 | 1.0 | 2.0 | 0.00 | 0.00 | 0.00 | 73 | 1011.9 |
| 20260509094805 | 56 | 179 | 0.0 | 3.0 | 0.00 | 0.00 | 0.00 | 73 | 1012.0 |
| 20260509094305 | 56 | 181 | 1.0 | 3.0 | 0.00 | 0.00 | 0.00 | 72 | 1011.9 |
| 20260509093304 | 56 | 144 | 2.0 | 8.0 | 0.00 | 0.00 | 0.00 | 71 | 1011.9 |
| 20260509091304 | 56 | 153 | 1.0 | 3.0 | 0.00 | 0.00 | 0.00 | 72 | 1012.0 |
| 20260509084804 | 56 | 143 | 2.0 | 3.0 | 0.00 | 0.00 | 0.00 | 71 | 1012.2 |
| 20260509082805 | 57 | 145 | 3.0 | 8.0 | 0.00 | 0.00 | 0.00 | 69 | 1012.4 |
| 20260509082307 | 57 | 157 | 5.0 | 8.0 | 0.00 | 0.00 | 0.00 | 69 | 1012.4 |
| 20260509080805 | 56 | 170 | 3.0 | 3.0 | 0.00 | 0.00 | 0.00 | 70 | 1012.5 |
| 20260509075805 | 56 | 169 | 1.0 | 5.0 | 0.00 | 0.00 | 0.00 | 70 | 1012.6 |
| 20260509075306 | 56 | 171 | 2.0 | 7.0 | 0.00 | 0.00 | 0.00 | 70 | 1012.5 |
| 20260509074805 | 56 | 142 | 3.0 | 8.0 | 0.00 | 0.00 | 0.00 | 70 | 1012.5 |
| 20260509074306 | 56 | 150 | 3.0 | 8.0 | 0.00 | 0.00 | 0.00 | 70 | 1012.5 |
| 20260509072306 | 56 | 156 | 4.0 | 6.0 | 0.00 | 0.00 | 0.00 | 70 | 1012.6 |
| 20260509071805 | 56 | 170 | 2.0 | 5.0 | 0.00 | 0.00 | 0.00 | 70 | 1012.6 |
| 20260509071305 | 56 | 168 | 2.0 | 7.0 | 0.00 | 0.00 | 0.00 | 71 | 1012.6 |
| 20260509070805 | 56 | 178 | 3.0 | 7.0 | 0.00 | 0.00 | 0.00 | 70 | 1012.7 |
| 20260509070305 | 56 | 171 | 2.0 | 7.0 | 0.00 | 0.00 | 0.00 | 71 | 1012.8 |
| 20260509065804 | 56 | 155 | 2.0 | 10.0 | 0.00 | 0.00 | 0.00 | 70 | 1012.8 |
| 20260509064806 | 56 | 154 | 2.0 | 8.0 | 0.00 | 0.00 | 0.00 | 70 | 1012.7 |
| 20260509064304 | 56 | 162 | 3.0 | 9.0 | 0.00 | 0.00 | 0.00 | 70 | 1012.7 |
| 20260509063804 | 56 | 159 | 4.0 | 9.0 | 0.00 | 0.00 | 0.00 | 70 | 1012.9 |
| 20260509062805 | 56 | 151 | 5.0 | 9.0 | 0.00 | 0.00 | 0.00 | 71 | 1012.9 |
| 20260509062306 | 56 | 168 | 4.0 | 8.0 | 0.00 | 0.00 | 0.00 | 71 | 1012.9 |
| 20260509060305 | 55 | 152 | 2.0 | 5.0 | 0.00 | 0.00 | 0.00 | 74 | 1013.2 |
| 20260509055804 | 55 | 165 | 3.0 | 5.0 | 0.00 | 0.00 | 0.00 | 75 | 1013.2 |
| 20260509055306 | 55 | 165 | 3.0 | 5.0 | 0.00 | 0.00 | 0.00 | 76 | 1013.2 |
| 20260509052804 | 54 | 150 | 2.0 | 5.0 | 0.00 | 0.00 | 0.00 | 82 | 1013.4 |
| 20260509052307 | 54 | 142 | 1.0 | 3.0 | 0.00 | 0.00 | 0.00 | 83 | 1013.4 |
| 20260509051304 | 54 | 142 | 1.0 | 5.0 | 0.00 | 0.00 | 0.00 | 83 | 1013.5 |
| 20260509045307 | 54 | 163 | 2.0 | 3.0 | 0.00 | 0.00 | 0.00 | 86 | 1013.5 |
| 20260509044804 | 54 | 163 | 1.0 | 3.0 | 0.00 | 0.00 | 0.00 | 87 | 1013.4 |
| 20260509044306 | 53 | 163 | 1.0 | 3.0 | 0.00 | 0.00 | 0.00 | 87 | 1013.5 |
| 20260509043305 | 54 | 163 | 0.0 | 1.0 | 0.00 | 0.00 | 0.00 | 87 | 1013.6 |
| 20260509040815 | 54 | 163 | 0.0 | 1.0 | 0.00 | 0.00 | 0.00 | 85 | 1013.7 |
| 20260509035306 | 55 | 163 | 0.0 | 2.0 | 0.00 | 0.00 | 0.00 | 83 | 1013.7 |
| 20260509034304 | 55 | 163 | 0.0 | 2.0 | 0.00 | 0.00 | 0.00 | 82 | 1013.7 |
| 20260509033804 | 55 | 163 | 0.0 | 2.0 | 0.00 | 0.00 | 0.00 | 81 | 1013.7 |
| 20260509032804 | 56 | 163 | 0.0 | 0.0 | 0.00 | 0.00 | 0.00 | 80 | 1013.7 |
| 20260509032306 | 56 | 163 | 0.0 | 0.0 | 0.00 | 0.00 | 0.00 | 79 | 1013.7 |
| 20260509031305 | 57 | 163 | 0.0 | 0.0 | 0.00 | 0.00 | 0.00 | 78 | 1013.8 |
| 20260509030305 | 57 | 163 | 0.0 | 0.0 | 0.00 | 0.00 | 0.00 | 76 | 1013.8 |
| 20260509025806 | 57 | 163 | 0.0 | 0.0 | 0.00 | 0.00 | 0.00 | 75 | 1013.9 |
| 20260509025307 | 58 | 163 | 0.0 | 0.0 | 0.00 | 0.00 | 0.00 | 74 | 1013.9 |
| 20260509024804 | 58 | 163 | 0.0 | 0.0 | 0.00 | 0.00 | 0.00 | 73 | 1013.9 |
| 20260509023804 | 59 | 163 | 0.0 | 2.0 | 0.00 | 0.00 | 0.00 | 72 | 1013.8 |
| 20260509021805 | 60 | 163 | 0.0 | 1.0 | 0.00 | 0.00 | 0.00 | 69 | 1013.9 |
| 20260509020804 | 61 | 163 | 0.0 | 1.0 | 0.00 | 0.00 | 0.00 | 68 | 1013.9 |
| 20260509020304 | 61 | 163 | 0.0 | 1.0 | 0.00 | 0.00 | 0.00 | 67 | 1013.7 |
| 20260509015804 | 61 | 163 | 0.0 | 2.0 | 0.00 | 0.00 | 0.00 | 67 | 1013.8 |
| 20260509014804 | 61 | 163 | 0.0 | 2.0 | 0.00 | 0.00 | 0.00 | 67 | 1013.8 |
| 20260509014305 | 61 | 163 | 0.0 | 5.0 | 0.00 | 0.00 | 0.00 | 65 | 1013.7 |
| 20260509013305 | 62 | 163 | 1.0 | 5.0 | 0.00 | 0.00 | 0.00 | 65 | 1013.8 |
| 20260509011805 | 62 | 162 | 2.0 | 5.0 | 0.00 | 0.00 | 0.00 | 63 | 1013.7 |
| 20260509004804 | 63 | 169 | 2.0 | 5.0 | 0.00 | 0.00 | 0.00 | 62 | 1013.4 |
| 20260509003304 | 63 | 161 | 2.0 | 6.0 | 0.00 | 0.00 | 0.00 | 60 | 1013.1 |
| 20260509002806 | 63 | 161 | 3.0 | 6.0 | 0.00 | 0.00 | 0.00 | 59 | 1013.0 |
| 20260509002306 | 63 | 156 | 2.0 | 7.0 | 0.00 | 0.00 | 0.00 | 57 | 1013.0 |
| 20260509001305 | 63 | 225 | 0.0 | 2.0 | 0.00 | 0.00 | 0.00 | 51 | 1012.8 |
| 20260509000804 | 63 | 224 | 0.0 | 0.0 | 0.00 | 0.00 | 0.00 | 51 | 1012.7 |
| 20260509000305 | 63 | 224 | 0.0 | 1.0 | 0.00 | 0.00 | 0.00 | 50 | 1012.7 |
| 20260508235804 | 64 | 224 | 0.0 | 1.0 | 0.00 | 0.00 | 0.00 | 50 | 1012.6 |
| 20260508235306 | 64 | 224 | 0.0 | 1.0 | 0.00 | 0.00 | 0.00 | 48 | 1012.5 |
| 20260508234804 | 65 | 224 | 0.0 | 2.0 | 0.00 | 0.00 | 0.00 | 47 | 1012.5 |
| 20260508233304 | 66 | 224 | 1.0 | 2.0 | 0.00 | 0.00 | 0.00 | 44 | 1012.5 |
| 20260508232805 | 66 | 224 | 0.0 | 3.0 | 0.00 | 0.00 | 0.00 | 40 | 1012.4 |
| 20260508231304 | 67 | 198 | 1.0 | 3.0 | 0.00 | 0.00 | 0.00 | 38 | 1012.3 |
| 20260508230804 | 67 | 212 | 1.0 | 3.0 | 0.00 | 0.00 | 0.00 | 39 | 1012.3 |
| 20260508225306 | 68 | 217 | 2.0 | 7.0 | 0.00 | 0.00 | 0.00 | 39 | 1012.2 |
| 20260508224804 | 68 | 274 | 3.0 | 7.0 | 0.00 | 0.00 | 0.00 | 38 | 1012.2 |
| 20260508224306 | 68 | 245 | 1.0 | 6.0 | 0.00 | 0.00 | 0.00 | 38 | 1012.2 |
| 20260508223805 | 68 | 245 | 2.0 | 6.0 | 0.00 | 0.00 | 0.00 | 38 | 1012.1 |
| 20260508223304 | 68 | 236 | 1.0 | 8.0 | 0.00 | 0.00 | 0.00 | 37 | 1012.2 |
| 20260508222805 | 68 | 205 | 2.0 | 10.0 | 0.00 | 0.00 | 0.00 | 37 | 1012.3 |
| 20260508222306 | 68 | 250 | 5.0 | 10.0 | 0.00 | 0.00 | 0.00 | 36 | 1012.3 |
| 20260508220805 | 69 | 210 | 0.0 | 9.0 | 0.00 | 0.00 | 0.00 | 36 | 1012.2 |
| 20260508215804 | 69 | 210 | 3.0 | 10.0 | 0.00 | 0.00 | 0.00 | 35 | 1012.2 |
| 20260508214305 | 70 | 209 | 5.0 | 12.0 | 0.00 | 0.00 | 0.00 | 35 | 1012.2 |
| 20260508212805 | 69 | 209 | 3.0 | 8.0 | 0.00 | 0.00 | 0.00 | 36 | 1012.1 |
| 20260508211804 | 69 | 234 | 3.0 | 12.0 | 0.00 | 0.00 | 0.00 | 34 | 1012.1 |
| 20260508205306 | 70 | 251 | 4.0 | 12.0 | 0.00 | 0.00 | 0.00 | 33 | 1012.0 |
| 20260508203805 | 71 | 203 | 3.0 | 10.0 | 0.00 | 0.00 | 0.00 | 35 | 1012.3 |
| 20260508203305 | 71 | 220 | 4.0 | 14.0 | 0.00 | 0.00 | 0.00 | 34 | 1012.2 |
| 20260508202804 | 72 | 169 | 5.0 | 14.0 | 0.00 | 0.00 | 0.00 | 34 | 1012.3 |
| 20260508202307 | 72 | 290 | 4.0 | 10.0 | 0.00 | 0.00 | 0.00 | 33 | 1012.4 |
| 20260508194305 | 68 | 204 | 5.0 | 12.0 | 0.00 | 0.00 | 0.00 | 37 | 1012.9 |
| 20260508192306 | 69 | 274 | 6.0 | 23.0 | 0.00 | 0.00 | 0.00 | 37 | 1013.2 |
| 20260508191804 | 71 | 283 | 10.0 | 23.0 | 0.00 | 0.00 | 0.00 | 37 | 1013.3 |
| 20260508191305 | 71 | 276 | 7.0 | 20.0 | 0.00 | 0.00 | 0.00 | 38 | 1013.3 |
| 20260508185306 | 70 | 201 | 7.0 | 20.0 | 0.00 | 0.00 | 0.00 | 36 | 1013.4 |
| 20260508184306 | 69 | 205 | 7.0 | 17.0 | 0.00 | 0.00 | 0.00 | 37 | 1013.4 |
| 20260508182804 | 69 | 282 | 8.0 | 20.0 | 0.00 | 0.00 | 0.00 | 38 | 1013.6 |
| 20260508181804 | 69 | 256 | 5.0 | 14.0 | 0.00 | 0.00 | 0.00 | 37 | 1013.5 |
| 20260508180806 | 70 | 162 | 3.0 | 16.0 | 0.00 | 0.00 | 0.00 | 39 | 1013.5 |
| 20260508174304 | 69 | 269 | 6.0 | 12.0 | 0.00 | 0.00 | 0.00 | 38 | 1013.9 |
| 20260508173304 | 68 | 242 | 5.0 | 16.0 | 0.00 | 0.00 | 0.00 | 37 | 1014.2 |
| 20260508172307 | 70 | 191 | 5.0 | 13.0 | 0.00 | 0.00 | 0.00 | 39 | 1014.2 |
| 20260508170803 | 69 | 279 | 6.0 | 18.0 | 0.00 | 0.00 | 0.00 | 39 | 1014.2 |
| 20260508165805 | 68 | 267 | 7.0 | 16.0 | 0.00 | 0.00 | 0.00 | 40 | 1014.3 |
| 20260508164804 | 69 | 239 | 10.0 | 20.0 | 0.00 | 0.00 | 0.00 | 38 | 1014.5 |
| 20260508162804 | 67 | 255 | 8.0 | 16.0 | 0.00 | 0.00 | 0.00 | 40 | 1014.5 |
| 20260508162306 | 67 | 228 | 6.0 | 17.0 | 0.00 | 0.00 | 0.00 | 38 | 1014.6 |
| 20260508161804 | 67 | 244 | 9.0 | 17.0 | 0.00 | 0.00 | 0.00 | 39 | 1014.6 |
| 20260508160304 | 67 | 247 | 3.0 | 14.0 | 0.00 | 0.00 | 0.00 | 41 | 1014.7 |
| 20260508153304 | 65 | 222 | 3.0 | 13.0 | 0.00 | 0.00 | 0.00 | 42 | 1015.3 |
| 20260508152804 | 65 | 254 | 6.0 | 15.0 | 0.00 | 0.00 | 0.00 | 42 | 1015.3 |
| 20260508152306 | 66 | 251 | 6.0 | 15.0 | 0.00 | 0.00 | 0.00 | 42 | 1015.2 |
| 20260508151804 | 65 | 240 | 3.0 | 10.0 | 0.00 | 0.00 | 0.00 | 45 | 1015.3 |
| 20260508145307 | 63 | 255 | 4.0 | 12.0 | 0.00 | 0.00 | 0.00 | 43 | 1015.4 |
| 20260508144304 | 62 | 203 | 3.0 | 14.0 | 0.00 | 0.00 | 0.00 | 43 | 1015.4 |
| 20260508135306 | 59 | 216 | 5.0 | 10.0 | 0.00 | 0.00 | 0.00 | 44 | 1015.9 |
| 20260508134804 | 59 | 164 | 2.0 | 10.0 | 0.00 | 0.00 | 0.00 | 42 | 1015.9 |
| 20260508134304 | 60 | 222 | 5.0 | 10.0 | 0.00 | 0.00 | 0.00 | 43 | 1015.9 |
| 20260508133805 | 60 | 256 | 3.0 | 10.0 | 0.00 | 0.00 | 0.00 | 43 | 1016.0 |
| 20260508132804 | 59 | 201 | 3.0 | 6.0 | 0.00 | 0.00 | 0.00 | 44 | 1016.2 |
| 20260508132306 | 58 | 236 | 2.0 | 6.0 | 0.00 | 0.00 | 0.00 | 43 | 1016.2 |
| 20260508131804 | 57 | 270 | 3.0 | 6.0 | 0.00 | 0.00 | 0.00 | 46 | 1016.1 |
| 20260508130304 | 57 | 203 | 2.0 | 6.0 | 0.00 | 0.00 | 0.00 | 51 | 1016.1 |
| 20260508125804 | 56 | 269 | 2.0 | 6.0 | 0.00 | 0.00 | 0.00 | 52 | 1016.1 |
| 20260508125306 | 56 | 304 | 2.0 | 6.0 | 0.00 | 0.00 | 0.00 | 51 | 1016.2 |
| 20260508122804 | 55 | 289 | 2.0 | 3.0 | 0.00 | 0.00 | 0.00 | 62 | 1016.2 |